Location: Gollag?dem
(17.0207°N, 80.7261°E)
Time: 13:56:02
(UTC+00:00)

CZ-2C R/B - Pass Details

Date: 03 August 2024
Orbit: 665 x 777 km, 98.4° (Epoch: 11 September)

Event Time Altitude Azimuth Distance (km) Brightness Sun altitude
Rises 22:55:53 0° 348° (NNW) 3,250 5.9 -19.0°
Reaches altitude 10° 22:58:47 10° 332° (NNW) 2,324 5.0 -18.4°
Enters shadow 23:02:13 19° 290° (WNW) 1,757 4.0 -17.7°
